SWR8PZ LSZH-EGLL

Flight info

Callsign SWR8PZ
Flight time 1h 18m
Altitude 38000
Route VEBIT T10 TORPA DCT REKLA DCT RLP DCT ROTSI DCT KOTUN DCT NINAL DCT ABNUR DCT DIMAL DCT ALESO
Aircraft A320/M-SDE2E3FGIRWXY/L

Departure

Time 2026-04-26 12:53
Airport Zürich Airport (LSZH)

Arrival

Time 2026-04-26 14:11
Airport London Heathrow Airport (EGLL)
Time Latitude Longitude Altitude Speed Heading
2026-04-26 12:06 47.45430 8.55634 1406 ft 0 kts 186°
2026-04-26 12:33 47.45448 8.55636 1399 ft 4 kts 183°
2026-04-26 12:33 47.45475 8.55637 1400 ft 4 kts 175°
2026-04-26 12:33 47.45501 8.55630 1407 ft 4 kts 155°
2026-04-26 12:33 47.45518 8.55609 1407 ft 3 kts 97°
2026-04-26 12:34 47.45519 8.55599 1407 ft 0 kts 95°
2026-04-26 12:37 47.45518 8.55621 1406 ft 5 kts 95°
2026-04-26 12:37 47.45513 8.55706 1397 ft 11 kts 95°
2026-04-26 12:37 47.45504 8.55826 1397 ft 13 kts 97°
2026-04-26 12:38 47.45494 8.55965 1397 ft 14 kts 96°
2026-04-26 12:38 47.45483 8.56121 1397 ft 16 kts 95°
2026-04-26 12:38 47.45513 8.56276 1403 ft 17 kts 52°
2026-04-26 12:38 47.45586 8.56415 1401 ft 18 kts 59°
2026-04-26 12:39 47.45586 8.56593 1397 ft 18 kts 96°
2026-04-26 12:39 47.45576 8.56741 1397 ft 9 kts 95°
2026-04-26 12:39 47.45576 8.56746 1397 ft 0 kts 95°
2026-04-26 12:46 47.45575 8.56764 1405 ft 4 kts 95°
2026-04-26 12:46 47.45572 8.56813 1397 ft 5 kts 95°
2026-04-26 12:46 47.45570 8.56833 1397 ft 0 kts 95°
2026-04-26 12:48 47.45568 8.56869 1397 ft 5 kts 95°
2026-04-26 12:48 47.45564 8.56925 1397 ft 6 kts 95°
2026-04-26 12:48 47.45564 8.56929 1397 ft 0 kts 96°
2026-04-26 12:50 47.45564 8.56937 1397 ft 5 kts 96°
2026-04-26 12:50 47.45590 8.57010 1402 ft 11 kts 33°
2026-04-26 12:50 47.45661 8.57002 1399 ft 9 kts 296°
2026-04-26 12:50 47.45664 8.56964 1402 ft 0 kts 277°
2026-04-26 12:52 47.45669 8.56906 1399 ft 29 kts 277°
2026-04-26 12:52 47.45720 8.56187 1406 ft 107 kts 276°
2026-04-26 12:52 47.45817 8.54781 1411 ft 164 kts 276°
2026-04-26 12:53 47.45920 8.53108 2057 ft 162 kts 277°
2026-04-26 12:53 47.46013 8.51435 2782 ft 165 kts 281°
2026-04-26 12:53 47.46137 8.49703 3251 ft 179 kts 281°
2026-04-26 12:53 47.46105 8.47754 3604 ft 205 kts 251°
2026-04-26 12:54 47.45189 8.46012 3879 ft 231 kts 220°
2026-04-26 12:54 47.43911 8.44375 4341 ft 256 kts 223°
2026-04-26 12:54 47.42663 8.42349 4906 ft 275 kts 231°
2026-04-26 12:54 47.41503 8.40083 5862 ft 278 kts 233°
2026-04-26 12:55 47.40377 8.37746 6905 ft 280 kts 234°
2026-04-26 12:55 47.39253 8.35395 7825 ft 281 kts 234°
2026-04-26 12:55 47.38276 8.32888 8734 ft 285 kts 247°
2026-04-26 12:55 47.37466 8.30205 9616 ft 288 kts 244°
2026-04-26 12:56 47.36559 8.27550 10467 ft 293 kts 243°
2026-04-26 12:56 47.35767 8.24664 10784 ft 316 kts 259°
2026-04-26 12:56 47.35766 8.21336 11152 ft 334 kts 277°
2026-04-26 12:56 47.36065 8.17894 11826 ft 340 kts 277°
2026-04-26 12:57 47.36369 8.14421 12624 ft 343 kts 277°
2026-04-26 12:57 47.36671 8.10916 13409 ft 347 kts 277°
2026-04-26 12:57 47.36973 8.07372 14228 ft 348 kts 278°
2026-04-26 12:58 47.37575 8.00242 15676 ft 353 kts 277°
2026-04-26 12:58 47.37876 7.96646 16402 ft 354 kts 277°
2026-04-26 12:58 47.38177 7.93012 17037 ft 359 kts 277°
2026-04-26 12:58 47.38478 7.89341 17720 ft 362 kts 277°
2026-04-26 12:59 47.38782 7.85635 18376 ft 365 kts 277°
2026-04-26 12:59 47.39087 7.81901 18955 ft 368 kts 277°
2026-04-26 12:59 47.39392 7.78135 19551 ft 371 kts 277°
2026-04-26 12:59 47.39697 7.74337 20136 ft 374 kts 277°
2026-04-26 13:00 47.40005 7.70508 20728 ft 377 kts 277°
2026-04-26 13:00 47.40317 7.66649 21322 ft 379 kts 276°
2026-04-26 13:00 47.40630 7.62770 21899 ft 382 kts 276°
2026-04-26 13:00 47.40943 7.58857 22471 ft 385 kts 276°
2026-04-26 13:01 47.41253 7.54918 23027 ft 388 kts 276°
2026-04-26 13:01 47.41564 7.50946 23567 ft 391 kts 276°
2026-04-26 13:01 47.41879 7.46938 24015 ft 394 kts 276°
2026-04-26 13:01 47.42196 7.42913 24450 ft 396 kts 276°
2026-04-26 13:02 47.42514 7.38860 24874 ft 398 kts 276°
2026-04-26 13:02 47.42833 7.34784 25289 ft 401 kts 276°
2026-04-26 13:02 47.43153 7.30682 25698 ft 403 kts 276°
2026-04-26 13:02 47.43470 7.26564 26098 ft 405 kts 276°
2026-04-26 13:03 47.43779 7.22481 26489 ft 407 kts 276°
2026-04-26 13:03 47.44091 7.18313 26902 ft 409 kts 276°
2026-04-26 13:03 47.44404 7.14130 27278 ft 411 kts 276°
2026-04-26 13:03 47.44721 7.09924 27654 ft 413 kts 276°
2026-04-26 13:04 47.45039 7.05695 28016 ft 415 kts 277°
2026-04-26 13:04 47.45357 7.01444 28361 ft 418 kts 277°
2026-04-26 13:04 47.45674 6.97164 28713 ft 420 kts 277°
2026-04-26 13:04 47.45989 6.92867 29063 ft 422 kts 277°
2026-04-26 13:05 47.46306 6.88549 29399 ft 424 kts 277°
2026-04-26 13:05 47.46621 6.84216 29725 ft 426 kts 277°
2026-04-26 13:05 47.46938 6.79848 30037 ft 427 kts 277°
2026-04-26 13:05 47.47255 6.75472 30335 ft 429 kts 277°
2026-04-26 13:06 47.47572 6.71080 30588 ft 431 kts 277°
2026-04-26 13:06 47.47890 6.66658 30816 ft 433 kts 277°
2026-04-26 13:06 47.48210 6.62215 31018 ft 435 kts 277°
2026-04-26 13:06 47.48533 6.57758 31215 ft 437 kts 277°
2026-04-26 13:07 47.48856 6.53300 31525 ft 436 kts 277°
2026-04-26 13:07 47.49176 6.48844 31841 ft 435 kts 277°
2026-04-26 13:07 47.49491 6.44400 32162 ft 434 kts 277°
2026-04-26 13:07 47.49806 6.39968 32489 ft 433 kts 277°
2026-04-26 13:08 47.50119 6.35544 32804 ft 432 kts 277°
2026-04-26 13:08 47.50429 6.31129 33124 ft 431 kts 277°
2026-04-26 13:08 47.50736 6.26720 33447 ft 430 kts 277°
2026-04-26 13:08 47.51040 6.22323 33772 ft 429 kts 277°
2026-04-26 13:09 47.51362 6.17669 34131 ft 428 kts 277°
2026-04-26 13:09 47.51953 6.09039 34681 ft 427 kts 277°
2026-04-26 13:09 47.52464 6.01464 35135 ft 426 kts 277°
2026-04-26 13:09 47.52757 5.97103 35387 ft 426 kts 277°
2026-04-26 13:10 47.53058 5.92752 35624 ft 425 kts 279°
2026-04-26 13:10 47.53685 5.88494 35850 ft 423 kts 289°
2026-04-26 13:10 47.54798 5.84473 36071 ft 422 kts 298°
2026-04-26 13:10 47.56355 5.80799 36297 ft 422 kts 307°
2026-04-26 13:11 47.58274 5.77520 36503 ft 421 kts 312°
2026-04-26 13:11 47.60260 5.74326 36718 ft 421 kts 312°
2026-04-26 13:11 47.62245 5.71130 36920 ft 421 kts 312°
2026-04-26 13:11 47.64227 5.67930 37123 ft 421 kts 312°
2026-04-26 13:12 47.66207 5.64728 37318 ft 421 kts 312°
2026-04-26 13:12 47.68185 5.61525 37541 ft 420 kts 311°
2026-04-26 13:12 47.70157 5.58327 37752 ft 420 kts 311°
2026-04-26 13:12 47.72127 5.55127 37938 ft 420 kts 311°
2026-04-26 13:13 47.74094 5.51927 38123 ft 419 kts 311°
2026-04-26 13:13 47.76064 5.48722 38199 ft 420 kts 311°
2026-04-26 13:13 47.79995 5.42325 38198 ft 418 kts 312°
2026-04-26 13:14 47.83909 5.35936 38201 ft 418 kts 312°
2026-04-26 13:14 47.87822 5.29535 38203 ft 418 kts 312°
2026-04-26 13:15 47.91727 5.23129 38205 ft 417 kts 312°
2026-04-26 13:15 47.94968 5.17800 38202 ft 417 kts 311°
2026-04-26 13:16 47.99521 5.10307 38203 ft 417 kts 311°
2026-04-26 13:16 48.03421 5.03867 38186 ft 419 kts 312°
2026-04-26 13:17 48.09281 4.94151 38191 ft 420 kts 312°
2026-04-26 13:18 48.15149 4.84379 38216 ft 421 kts 311°
2026-04-26 13:19 48.21021 4.74567 38211 ft 422 kts 311°
2026-04-26 13:19 48.24939 4.68011 38208 ft 422 kts 312°
2026-04-26 13:20 48.28830 4.61492 38225 ft 422 kts 312°
2026-04-26 13:20 48.32739 4.54918 38234 ft 422 kts 311°
2026-04-26 13:21 48.36644 4.48334 38244 ft 422 kts 311°
2026-04-26 13:21 48.40537 4.41739 38243 ft 421 kts 311°
2026-04-26 13:22 48.44425 4.35142 38242 ft 421 kts 311°
2026-04-26 13:22 48.48302 4.28544 38227 ft 420 kts 311°
2026-04-26 13:23 48.52177 4.21944 38246 ft 420 kts 311°
2026-04-26 13:23 48.55424 4.16400 38252 ft 420 kts 311°
2026-04-26 13:24 48.59293 4.09782 38273 ft 420 kts 311°
2026-04-26 13:24 48.63133 4.03191 38267 ft 420 kts 311°
2026-04-26 13:25 48.66988 3.96558 38260 ft 420 kts 311°
2026-04-26 13:25 48.70829 3.89908 38259 ft 419 kts 311°
2026-04-26 13:26 48.74756 3.83374 38256 ft 419 kts 314°
2026-04-26 13:26 48.78939 3.77227 38257 ft 419 kts 316°
2026-04-26 13:27 48.83174 3.71141 38255 ft 419 kts 316°
2026-04-26 13:27 48.87355 3.64978 38259 ft 419 kts 315°
2026-04-26 13:28 48.91499 3.58750 38262 ft 419 kts 315°
2026-04-26 13:28 48.95635 3.52501 38260 ft 419 kts 315°
2026-04-26 13:29 48.99779 3.46260 38254 ft 419 kts 315°
2026-04-26 13:29 49.03927 3.40017 38263 ft 419 kts 315°
2026-04-26 13:30 49.08066 3.33768 38272 ft 419 kts 315°
2026-04-26 13:30 49.12191 3.27499 38272 ft 418 kts 315°
2026-04-26 13:31 49.16316 3.21232 38269 ft 418 kts 315°
2026-04-26 13:31 49.20416 3.15000 38270 ft 418 kts 315°
2026-04-26 13:32 49.24537 3.08714 38261 ft 418 kts 315°
2026-04-26 13:32 49.28658 3.02413 38276 ft 418 kts 314°
2026-04-26 13:33 49.32766 2.96097 38276 ft 418 kts 314°
2026-04-26 13:33 49.36872 2.89769 38275 ft 418 kts 314°
2026-04-26 13:34 49.40974 2.83436 38277 ft 418 kts 314°
2026-04-26 13:34 49.45075 2.77090 38277 ft 418 kts 314°
2026-04-26 13:35 49.49173 2.70742 38279 ft 418 kts 314°
2026-04-26 13:35 49.53271 2.64380 38276 ft 418 kts 314°
2026-04-26 13:36 49.57335 2.58039 38282 ft 419 kts 314°
2026-04-26 13:36 49.61548 2.51838 38280 ft 420 kts 321°
2026-04-26 13:37 49.66207 2.46405 38277 ft 420 kts 321°
2026-04-26 13:37 49.70834 2.40990 38276 ft 419 kts 321°
2026-04-26 13:38 49.75477 2.35525 38289 ft 420 kts 321°
2026-04-26 13:38 49.80119 2.30044 38287 ft 420 kts 321°
2026-04-26 13:39 49.84762 2.24549 38269 ft 420 kts 321°
2026-04-26 13:39 49.89407 2.19031 38274 ft 421 kts 321°
2026-04-26 13:40 49.94063 2.13504 38276 ft 422 kts 321°
2026-04-26 13:40 49.98726 2.07963 38289 ft 422 kts 321°
2026-04-26 13:41 50.03387 2.02392 38293 ft 422 kts 321°
2026-04-26 13:41 50.08048 1.96808 38280 ft 424 kts 321°
2026-04-26 13:42 50.12727 1.91187 38271 ft 426 kts 321°
2026-04-26 13:42 50.17384 1.85474 38276 ft 426 kts 316°
2026-04-26 13:43 50.21640 1.79053 38276 ft 426 kts 314°
2026-04-26 13:43 50.23770 1.75812 37952 ft 426 kts 314°
2026-04-26 13:43 50.25872 1.72609 37668 ft 419 kts 314°
2026-04-26 13:43 50.27952 1.69432 37397 ft 417 kts 314°
2026-04-26 13:44 50.30022 1.66263 37129 ft 416 kts 314°
2026-04-26 13:44 50.32086 1.63096 36866 ft 416 kts 314°
2026-04-26 13:44 50.34149 1.59927 36605 ft 415 kts 314°
2026-04-26 13:44 50.36211 1.56757 36339 ft 415 kts 313°
2026-04-26 13:45 50.38277 1.53581 36045 ft 415 kts 313°
2026-04-26 13:45 50.40345 1.50398 35225 ft 418 kts 313°
2026-04-26 13:45 50.42418 1.47212 34474 ft 418 kts 313°
2026-04-26 13:45 50.44497 1.44009 33515 ft 420 kts 313°
2026-04-26 13:46 50.46581 1.40786 32608 ft 421 kts 313°
2026-04-26 13:46 50.48672 1.37548 31796 ft 421 kts 313°
2026-04-26 13:46 50.50721 1.34320 31265 ft 415 kts 311°
2026-04-26 13:46 50.52696 1.31049 30660 ft 411 kts 310°
2026-04-26 13:47 50.54623 1.27744 30013 ft 408 kts 310°
2026-04-26 13:47 50.56518 1.24453 29428 ft 403 kts 310°
2026-04-26 13:47 50.58397 1.21207 28854 ft 399 kts 311°
2026-04-26 13:47 50.60305 1.18064 28287 ft 396 kts 312°
2026-04-26 13:48 50.62239 1.15004 27725 ft 392 kts 313°
2026-04-26 13:48 50.64173 1.12000 27169 ft 389 kts 313°
2026-04-26 13:48 50.66100 1.09019 26622 ft 387 kts 313°
2026-04-26 13:48 50.68012 1.06045 26080 ft 384 kts 313°
2026-04-26 13:49 50.69875 1.03121 25570 ft 382 kts 313°
2026-04-26 13:49 50.71746 1.00162 25048 ft 380 kts 313°
2026-04-26 13:49 50.73600 0.97209 24550 ft 378 kts 313°
2026-04-26 13:49 50.75441 0.94268 24067 ft 376 kts 313°
2026-04-26 13:50 50.77272 0.91341 23551 ft 373 kts 312°
2026-04-26 13:50 50.79086 0.88443 23084 ft 369 kts 312°
2026-04-26 13:50 50.80880 0.85582 22635 ft 365 kts 312°
2026-04-26 13:50 50.82655 0.82747 22189 ft 361 kts 312°
2026-04-26 13:51 50.84413 0.79933 21737 ft 358 kts 312°
2026-04-26 13:51 50.86154 0.77144 21284 ft 355 kts 312°
2026-04-26 13:51 50.87882 0.74373 20830 ft 353 kts 312°
2026-04-26 13:51 50.89602 0.71612 20355 ft 351 kts 312°
2026-04-26 13:52 50.91312 0.68862 19873 ft 350 kts 312°
2026-04-26 13:52 50.93019 0.66113 19392 ft 349 kts 312°
2026-04-26 13:52 50.94717 0.63374 18913 ft 349 kts 312°
2026-04-26 13:52 50.96416 0.60627 18411 ft 349 kts 312°
2026-04-26 13:53 50.98143 0.57831 17761 ft 353 kts 312°
2026-04-26 13:53 50.99868 0.55038 17067 ft 356 kts 312°
2026-04-26 13:53 51.01588 0.52252 16412 ft 359 kts 312°
2026-04-26 13:53 51.03366 0.49370 15723 ft 362 kts 313°
2026-04-26 13:54 51.05116 0.46532 15051 ft 366 kts 313°
2026-04-26 13:54 51.06919 0.43606 14535 ft 362 kts 313°
2026-04-26 13:54 51.08662 0.40857 13682 ft 355 kts 314°
2026-04-26 13:55 51.12129 0.35624 12349 ft 333 kts 315°
2026-04-26 13:55 51.13262 0.33927 11932 ft 329 kts 315°
2026-04-26 13:55 51.16884 0.28431 11222 ft 296 kts 314°
2026-04-26 13:56 51.18358 0.26175 10977 ft 292 kts 315°
2026-04-26 13:56 51.19821 0.23893 10741 ft 304 kts 310°
2026-04-26 13:56 51.20939 0.21043 10465 ft 302 kts 293°
2026-04-26 13:56 51.21765 0.18034 10097 ft 291 kts 292°
2026-04-26 13:57 51.22542 0.15056 9699 ft 290 kts 291°
2026-04-26 13:57 51.23317 0.12090 9309 ft 289 kts 291°
2026-04-26 13:57 51.24076 0.09138 8936 ft 287 kts 291°
2026-04-26 13:57 51.24819 0.06263 8572 ft 272 kts 291°
2026-04-26 13:58 51.25526 0.03544 8228 ft 259 kts 291°
2026-04-26 13:58 51.26195 0.00929 7882 ft 252 kts 291°
2026-04-26 13:58 51.26860 -0.01655 7552 ft 251 kts 291°
2026-04-26 13:58 51.27490 -0.04249 7320 ft 247 kts 288°
2026-04-26 13:59 51.28012 -0.06837 7300 ft 245 kts 287°
2026-04-26 13:59 51.28511 -0.09434 7302 ft 245 kts 286°
2026-04-26 13:59 51.29012 -0.12035 7298 ft 245 kts 286°
2026-04-26 14:00 51.30492 -0.19853 7303 ft 245 kts 286°
2026-04-26 14:00 51.30985 -0.22460 7305 ft 245 kts 286°
2026-04-26 14:00 51.31312 -0.24188 7301 ft 245 kts 286°
2026-04-26 14:01 51.31972 -0.27676 7304 ft 245 kts 286°
2026-04-26 14:01 51.32468 -0.30282 7304 ft 245 kts 286°
2026-04-26 14:01 51.32969 -0.32889 7303 ft 245 kts 286°
2026-04-26 14:01 51.33464 -0.35492 7306 ft 245 kts 286°
2026-04-26 14:02 51.33969 -0.38092 7301 ft 245 kts 286°
2026-04-26 14:02 51.34477 -0.40692 7302 ft 245 kts 286°
2026-04-26 14:02 51.34986 -0.43297 7228 ft 246 kts 286°
2026-04-26 14:02 51.35483 -0.45902 7036 ft 244 kts 285°
2026-04-26 14:03 51.35979 -0.48493 6836 ft 243 kts 286°
2026-04-26 14:03 51.36464 -0.51047 6647 ft 243 kts 286°
2026-04-26 14:03 51.36961 -0.53636 6441 ft 243 kts 286°
2026-04-26 14:03 51.37463 -0.56221 6225 ft 243 kts 286°
2026-04-26 14:04 51.37963 -0.58799 6015 ft 242 kts 286°
2026-04-26 14:04 51.38455 -0.61372 5812 ft 241 kts 286°
2026-04-26 14:04 51.38945 -0.63944 5604 ft 241 kts 286°
2026-04-26 14:04 51.39432 -0.66505 5397 ft 241 kts 286°
2026-04-26 14:05 51.39923 -0.69077 5199 ft 241 kts 286°
2026-04-26 14:05 51.40407 -0.71638 4993 ft 241 kts 286°
2026-04-26 14:05 51.41052 -0.74109 4783 ft 240 kts 306°
2026-04-26 14:05 51.42335 -0.75761 4568 ft 239 kts 339°
2026-04-26 14:06 51.43960 -0.76117 4120 ft 239 kts 10°
2026-04-26 14:06 51.45426 -0.75066 3645 ft 230 kts 44°
2026-04-26 14:06 51.46107 -0.73797 3330 ft 226 kts 57°
2026-04-26 14:06 51.46967 -0.71657 2700 ft 231 kts 60°
2026-04-26 14:07 51.47587 -0.69311 2248 ft 227 kts 83°
2026-04-26 14:07 51.47661 -0.66877 2002 ft 206 kts 90°
2026-04-26 14:07 51.47672 -0.64727 1997 ft 178 kts 92°
2026-04-26 14:07 51.47682 -0.62856 1844 ft 161 kts 91°
2026-04-26 14:08 51.47691 -0.61115 1637 ft 151 kts 90°
2026-04-26 14:08 51.47698 -0.59502 1472 ft 142 kts 92°
2026-04-26 14:08 51.47705 -0.57945 1284 ft 139 kts 91°
2026-04-26 14:08 51.47713 -0.56422 1096 ft 136 kts 92°
2026-04-26 14:09 51.47726 -0.54911 902 ft 135 kts 89°
2026-04-26 14:09 51.47734 -0.53415 748 ft 133 kts 91°
2026-04-26 14:09 51.47733 -0.51938 532 ft 132 kts 88°
2026-04-26 14:09 51.47746 -0.50479 354 ft 132 kts 88°
2026-04-26 14:10 51.47751 -0.49009 228 ft 132 kts 88°
2026-04-26 14:10 51.47754 -0.47552 86 ft 128 kts 89°
2026-04-26 14:10 51.47760 -0.46389 88 ft 80 kts 90°
2026-04-26 14:10 51.47763 -0.45609 85 ft 62 kts 89°
2026-04-26 14:11 51.47679 -0.44819 91 ft 13 kts 147°
2026-04-26 14:11 51.47656 -0.44797 89 ft 1 kts 150°
2026-04-26 14:11 51.47655 -0.44795 89 ft 0 kts 150°
2026-04-26 14:12 51.47639 -0.44789 89 ft 4 kts 172°
2026-04-26 14:12 51.47632 -0.44787 88 ft 0 kts 173°
2026-04-26 14:13 51.47631 -0.44787 88 ft 1 kts 173°
2026-04-26 14:13 51.47626 -0.44783 87 ft 4 kts 159°
2026-04-26 14:14 51.47597 -0.44710 87 ft 12 kts 112°
2026-04-26 14:14 51.47543 -0.44656 86 ft 9 kts 178°
2026-04-26 14:14 51.47502 -0.44608 86 ft 7 kts 126°
2026-04-26 14:14 51.47464 -0.44566 90 ft 7 kts 165°
2026-04-26 14:15 51.47384 -0.44561 86 ft 16 kts 181°
2026-04-26 14:15 51.47272 -0.44560 88 ft 16 kts 178°
2026-04-26 14:15 51.47169 -0.44559 86 ft 15 kts 180°
2026-04-26 14:15 51.47069 -0.44560 86 ft 13 kts 180°
2026-04-26 14:16 51.46983 -0.44556 86 ft 12 kts 178°
2026-04-26 14:16 51.46899 -0.44556 86 ft 11 kts 180°
2026-04-26 14:16 51.46830 -0.44555 86 ft 8 kts 179°
2026-04-26 14:16 51.46822 -0.44555 86 ft 0 kts 179°
2026-04-26 14:18 51.46802 -0.44555 87 ft 7 kts 180°
2026-04-26 14:18 51.46763 -0.44587 87 ft 6 kts 231°
2026-04-26 14:18 51.46753 -0.44647 87 ft 5 kts 265°
2026-04-26 14:18 51.46753 -0.44702 86 ft 5 kts 271°
2026-04-26 14:19 51.46753 -0.44751 86 ft 5 kts 269°
2026-04-26 14:19 51.46752 -0.44850 86 ft 11 kts 269°
2026-04-26 14:19 51.46752 -0.44971 86 ft 11 kts 270°
2026-04-26 14:19 51.46767 -0.45037 89 ft 5 kts 331°
2026-04-26 14:20 51.46802 -0.45043 86 ft 5 kts 359°
2026-04-26 14:20 51.46825 -0.45043 86 ft 0 kts 359°
2026-04-26 14:20 51.46827 -0.45043 86 ft 0 kts 359°